This demonstration page uses our WeatherBlox Daily Observations layout. Learn more.

Left ArrowRight Arrow

41.86663, -103.66717

Hourly Observations for April 1, 2016

Temp ( °F °C ) Dew Point ( °F °C ) Humidity (%) Winds ( mph kmh ) Pressure ( in mb ) Visibility ( mi km ) Precip ( " mm )
12:53 am 00:53 Cloudy 33 0.6 30 -1.1 89 89 WNW 6 9 30.08 1019 10 16 N/A
1:53 am 01:53 Mostly Cloudy 32 undefined 28 -2.2 85 85 WNW 8 13 30.09 1019 10 16 N/A
2:53 am 02:53 Cloudy with Light Snow 32 undefined 29 -1.7 88 88 WNW 8 13 30.08 1019 9 14 N/A
3:53 am 03:53 Cloudy 32 undefined 28 -2.2 85 85 NW 14 22 30.08 1019 9 14 N/A
4:53 am 04:53 Mostly Cloudy 32 undefined 28 -2.2 85 85 WNW 10 17 30.09 1019 10 16 N/A
5:53 am 05:53 Mostly Cloudy 32 undefined 26 -3.3 79 79 WNW 10 17 30.10 1019 10 16 N/A
6:53 am 06:53 Mostly Sunny 30 -1.1 25 -3.9 82 82 WNW 9 15 30.14 1021 10 16 N/A
7:53 am 07:53 Mostly Sunny 33 0.6 26 -3.3 75 75 WNW 13 20 30.17 1022 10 16 N/A
8:53 am 08:53 Sunny 36 2.2 25 -3.9 64 64 NW 18 30 30.17 1022 10 16 N/A
9:53 am 09:53 Sunny 38 3.3 25 -3.9 60 60 NW 24 39 30.19 1023 10 16 N/A
10:53 am 10:53 Mostly Sunny 40 4.4 25 -3.9 55 55 NW 26 43 30.20 1023 10 16 N/A
11:53 am 11:53 Mostly Sunny 42 5.6 24 -4.4 49 49 NNW 31 50 30.20 1023 10 16 N/A
12:53 pm 12:53 Sunny 44 6.7 23 -5 43 43 NW 25 41 30.19 1023 10 16 N/A
1:53 pm 13:53 Sunny 46 7.8 23 -5 40 40 NW 25 41 30.19 1022 10 16 N/A
2:53 pm 14:53 Sunny 47 8.3 24 -4.4 41 41 NW 24 39 30.16 1021 10 16 N/A
3:53 pm 15:53 Partly Cloudy 47 8.3 25 -3.9 42 42 NW 18 30 30.15 1021 10 16 N/A
4:53 pm 16:53 Mostly Sunny 48 8.9 24 -4.4 39 39 NW 22 35 30.14 1021 10 16 N/A
5:53 pm 17:53 Sunny 47 8.3 22 -5.6 37 37 WNW 22 35 30.13 1020 10 16 N/A
6:53 pm 18:53 Partly Cloudy 45 7.2 24 -4.4 44 44 WNW 13 20 30.14 1021 10 16 N/A
7:53 pm 19:53 Mostly Cloudy 39 3.9 27 -2.8 62 62 W 7 11 30.16 1021 10 16 N/A
8:53 pm 20:53 Mostly Cloudy 40 4.4 27 -2.8 60 60 W 10 17 30.15 1021 10 16 N/A
9:53 pm 21:53 Clear 38 3.3 29 -1.7 70 70 WNW 10 17 30.16 1021 10 16 N/A
10:53 pm 22:53 Mostly Clear 39 3.9 29 -1.7 67 67 WNW 13 20 30.14 1021 10 16 N/A
11:53 pm 23:53 Cloudy 38 3.3 29 -1.7 70 70 NW 7 11 30.14 1021 10 16 N/A

Powered by AerisWeather